Weather in Anqing

China     30°33′25″N   117°02′54″E
temp.,
°C
wind,
m/s
gust,
m/s
humid.,
%
clouds,
%
prec.,
mm/h
press.,
hPa
HPBL,
m
17 april, sat
sat1723:00+18nne225170 0.0 101926
02:00+17sse1156100 0.0 101811
05:00+16sw225923 0.0 101816
08:00+17ne51053100 0.0 1022545
11:00+21nne71030100 0.0 10231228
14:00+22nne6827100 0.0 10221523
17:00+20ne5732100 0.0 1022948
20:00+17ne3843100 0.0 1023413
18 april, sun
sun1823:00+15ne3847100 0.0 1023306
02:00+14ne3854100 0.0 1022239
05:00+13ne3654100 0.0 1022207
08:00+14nne3649100 0.0 1023282
11:00+19ne4629100 0.0 1021906
14:00+19nne4430100 0.0 1019957
17:00+18ne3538100 0.0 1018442
20:00+16e124775 0.0 101974
19 april, mon
mon1923:00+14ne0152100 0.0 101914
02:00+13ssw00565 0.0 101811
05:00+12n00610 0.0 101711
08:00+16ene00520 0.0 1018248
11:00+22ne00335 0.0 1018832
14:00+24se22291 0.0 10151385
17:00+24e12350 0.0 10131268
20:00+19sw23540 0.0 1015110
20 april, tue
tue2023:00+18wsw22594 0.0 101577
02:00+17ssw11649 0.0 101423
05:00+17se116599 0.0 101419
08:00+18ene116083 0.0 1015212
11:00+24ene11459 0.0 1015796
14:00+27ese124157 0.0 10121408
17:00+27e224485 0.0 10111514
20:00+24ne2553100 0.0 1012273
21 april, wed
wed2123:00+21ne23605 0.0 1013107
02:00+19ne226271 0.0 101266
05:00+19ne126444 0.0 101264
08:00+21e126111 0.0 1013260
11:00+27ese124521 0.1 10121013
14:00+29sw2446100 0.3 10101749
17:00+26wnw225595 0.1 1009719
20:00+24nne2365100 0.1 1010133